NAVSPASUR ROD 1

Satellite information

Favourite Embed

Satellite Type and Status

PAYLOADIN ORBIT

Key statistics

Satellite NAVSPASUR ROD 1 at a glance.

Uptime

21996

Days in orbit

Revolutions

≈ 13.5

Per day

Orbit

SSO

Sun Synchronous Orbit

Inclination

90.0

Latest

Satellite identification and parameters

Extended collection of information and parameters for NAVSPASUR ROD 1.

Object identification

Identified? True

Debris? False

Object name: NAVSPASUR ROD 1

International designator: 1965-065G

Object number (NORAD): 1515

Object ID (CCSDS): 1515

Country: UNITED STATES OF AMERICA (US)

Current information (Y/N): Y

RCS size: SMALL

Orbital parameters

Period: 106.606 minutes

Inclination: 90.0112 deg

SMA: 7447.583 km

Apoapsis: 1112.029 km

Periapsis: 1026.867 km

RAAN: 213.8542 deg

Eccentricy: 0.00571742

Argument of periapsis: 256.6975 deg

Mean anomaly: 228.1808 deg

Mean motion: 13.50764889 rev/day

Mean motion (dot): 0.00000809 rev/day2

B* drag term: 0.0012315999 1/REarth

Two-line elements (TLE)

Creation date: Nov. 1, 2025, 7:40 p.m.

Reference frame: TEME

Reference center: EARTH

Epoch: Nov. 1, 2025, 5:23 a.m. UTC

TLE line 0: 0 NAVSPASUR ROD 1

TLE line 1: 1 01515U 65065G 25305.22490582 .00000809 00000-0 12316-2 0 9993

TLE line 2: 2 01515 90.0112 213.8542 0057174 256.6975 228.1808 13.50764889949547

Live tracking on map

Real-time ground track for satellite NAVSPASUR ROD 1.

In-orbit conjunctions

There are no conjunctions computed for NAVSPASUR ROD 1, at the moment. Check back to stay up to date, as we update our databases every day.

Go to all conjunctions

Associated space launch

The Transit-O series of satellites that closely followed the design of Transit 5C-1 were also called “Oscars” (Oscar is the phonetic alphabet for “O”, i. e., operational). They were also called NNS (Navy Navigation Satellite) or shortened NavSat.

NAVSPASUR ROD 1 was lifted into orbit during the mission ‘Thor DM-21 Ablestar | Transit-O 5’, on board a Thor DM-21 Ablestar space rocket.

The launch took place on Aug. 13, 1965, 10:11 p.m. from Space Launch Complex 2E.

For more information about the launch, click the button.

Launch to space Thor DM-21 Ablestar | Transit-O 5
Thor DM-21 Ablestar | Transit-O 5

Agency: N/A

Status: Launch Successful

Launch date: Aug. 13, 1965, 10:11 p.m. UTC

Rocket: Thor DM-21 Ablestar

Launch pad: Space Launch Complex 2E

Location: Vandenberg SFB, CA, USA

...

Latest news about this satellite

There are no fresh news available about this satellite. Check back as we update our databases every day.


Newsletter sign-up

Weekly statistics, charts and insights to help you stay on top of the space industry.